Location: Buch
(50.1863°N, 11.0141°E)
Time: 00:45:50
(UTC+00:00)

SMAP - Pass Details

Date: 18 January 2020
Orbit: 681 x 683 km, 98.1° (Epoch: 28 February)

Event Time Altitude Azimuth Distance (km) Brightness Sun altitude
Rises 05:28:38 0° 16° (NNE) 3,058 6.5 -15.3°
Reaches altitude 10° 05:30:55 10° 20° (NNE) 2,138 5.7 -15.0°
Maximum altitude 05:35:34 61° 102° (ESE) 775 3.6 -14.3°
Drops below altitude 10° 05:40:09 10° 183° (S) 2,120 5.8 -13.5°
Sets 05:42:24 0° 186° (S) 3,030 6.5 -13.2°
